Location: Newark
(48.8519°N, 2.3472°E)
Time: 10:01:17
(UTC+00:00)

METEOR M2 - Visible Passes

Search period start: 22 November 2019 00:00
Search period end: 02 December 2019 00:00
Orbit: 819 x 827 km, 98.5° (Epoch: 21 November)

Date Brightness Start Highest point End Pass type
(mag) Time Alt. Az. Time Alt. Az. Time Alt. Az.
22 Nov ? 18:57:15 18° N 18:57:15 18° N 18:58:42 10° N visible
23 Nov ? 18:37:12 17° N 18:37:12 17° N 18:38:34 10° N visible
23 Nov ? 20:18:38 12° NNW 20:18:38 12° NNW 20:19:00 10° NNW visible
24 Nov ? 18:17:08 15° NNE 18:17:08 15° NNE 18:18:21 10° N visible
24 Nov ? 19:58:34 14° NNW 19:58:34 14° NNW 19:59:14 10° NNW visible
25 Nov ? 17:57:04 13° NNE 17:57:04 13° NNE 17:57:57 10° NNE visible
25 Nov ? 19:38:30 15° NNW 19:38:30 15° NNW 19:39:22 10° NNW visible
26 Nov ? 17:37:00 10° NNE 17:37:00 10° NNE 17:37:13 10° NNE visible
26 Nov ? 19:18:26 16° N 19:18:26 16° N 19:19:26 10° N visible
27 Nov ? 18:58:21 16° N 18:58:21 16° N 18:59:24 10° N visible
28 Nov ? 18:38:17 15° N 18:38:17 15° N 18:39:17 10° N visible
29 Nov ? 18:18:12 14° NNE 18:18:12 14° NNE 18:19:02 10° N visible
29 Nov ? 19:59:37 12° NNW 19:59:37 12° NNW 19:59:55 10° NNW visible
30 Nov ? 17:58:07 12° NNE 17:58:07 12° NNE 17:58:39 10° NNE visible
30 Nov ? 19:39:32 13° NNW 19:39:32 13° NNW 19:40:03 10° NNW visible
01 Dec ? 19:19:27 14° N 19:19:27 14° N 19:20:07 10° N visible
